Location: Unspecified
(44.0704°N, 88.6889°W)
Time: 18:02:14
(UTC+02:00)

ISS - Pass Details

Date: 01 April 2019
Orbit: 408 x 410 km, 51.6° (Epoch: 27 April)

Event Time Altitude Azimuth Distance (km) Brightness Sun altitude
Rises 03:09:21 0° 294° (WNW) 2,338 2.2 -9.4°
Reaches altitude 10° 03:11:46 10° 311° (NW) 1,475 0.2 -9.9°
Maximum altitude 03:14:24 21° 3° (N) 968 -1.8 -10.3°
Drops below altitude 10° 03:17:02 10° 56° (ENE) 1,474 -1.4 -10.8°
Enters shadow 03:17:23 - 60° (ENE) 1,591 -1.2 -10.8°
